Home   Weather   Monza   Past weeks

Flag for Italy Past Weather in Monza, Italy — Yesterday and Last 2 Weeks

Now
43 °F

Partly sunny.


Feels Like: 39 °F
Forecast: 35 / 53 °F
Wind: 7 mph from Northeast

Location: Milan / Linate

Current Time: Feb 25, 2017 at 8:16:59 am

Latest Report: Feb 25, 2017 at 7:20 am


Visibility: N/A

Pressure: 30.15 "Hg

Humidity: 87%

Dew Point: 39 °F

Location of MonzaLocation

Past Weather in Monza — Graph

°F

Monza Temperature Yesterday

Maximum temperature yesterday: 63 °F (at 2:50 pm)
Minimum temperature yesterday: 45 °F (at 11:20 pm)
Average temperature yesterday: 49 °F

High & Low Weather Summary for the Past Weeks

 TemperatureHumidityPressure
High63 °F (Feb 24, 2:50 pm)100% (Feb 10, 2:50 pm)30.60 "Hg (Feb 10, 2:50 pm)
Low34 °F (Feb 15, 4:20 am)39% (Feb 16, 3:20 pm)29.71 "Hg (Feb 24, 1:50 pm)
Average44 °F90%30.23 "Hg
* Reported Feb 10 6:20 am — Feb 25 6:50 am, Monza, Weather by CustomWeather, © 2017

Note: Actual official high and low records may vary slightly from our data, if they occured in-between our weather recording intervals... More about our weather records

Advertising

Monza Weather History for the Previous 24 Hours

Scroll right to see more
 ConditionsComfort  
Time TempWeatherWind HumidityBarometerVisibility
6:50 am
Sat, Feb 25
43 °FPassing clouds.7 mph87%30.12 "HgN/A
6:20 am43 °FPassing clouds.9 mph87%30.09 "HgN/A
5:50 am43 °FPassing clouds.8 mph93%30.09 "HgN/A
5:20 am43 °FPassing clouds.8 mph93%30.09 "HgN/A
4:50 am45 °FPassing clouds.10 mph87%30.07 "HgN/A
4:20 am45 °FPassing clouds.12 mph87%30.07 "HgN/A
3:50 am45 °FPassing clouds.17 mph93%30.04 "HgN/A
3:20 am46 °FFog.9 mph100%30.04 "Hg3 mi
2:50 am46 °FFog.7 mph100%30.01 "Hg3 mi
2:20 am46 °FFog.6 mph100%30.01 "Hg1 mi
1:50 am45 °FFog.6 mph100%29.98 "Hg1 mi
1:20 am43 °FPassing clouds.5 mph100%29.95 "Hg1 mi
12:50 am45 °FFog.8 mph100%29.92 "Hg0 mi
12:20 am43 °FLight fog.3 mph100%29.92 "Hg1 mi
11:50 pm
Fri, Feb 24
45 °FLight fog.5 mph100%29.89 "Hg1 mi
11:20 pm45 °FLight fog.3 mph100%29.86 "Hg2 mi
10:50 pm46 °FLight fog.3 mph100%29.86 "Hg2 mi
10:20 pm46 °FPassing clouds.7 mph100%29.83 "Hg2 mi
9:50 pm46 °FPassing clouds.2 mph100%29.80 "Hg3 mi
9:20 pm46 °FFog.2 mph100%29.80 "Hg3 mi
8:50 pm48 °FFog.2 mph100%29.80 "Hg3 mi
8:20 pm50 °FFog.1 mph94%29.77 "Hg3 mi
7:50 pm50 °FFog.2 mph94%29.77 "Hg3 mi
7:20 pm48 °FFog.10 mph100%29.74 "Hg2 mi
6:50 pm50 °FFog.3 mph94%29.74 "Hg2 mi
6:20 pm52 °FFog.3 mph94%29.74 "Hg2 mi
5:50 pm52 °FFog.5 mph94%29.71 "Hg2 mi
5:20 pm52 °FFog.3 mph94%29.71 "Hg3 mi
4:50 pm52 °FFog.2 mph94%29.71 "Hg3 mi
4:20 pm54 °FFog.5 mph88%29.71 "Hg3 mi
3:50 pm54 °FFog.3 mph88%29.71 "Hg3 mi
3:20 pm54 °FFog.7 mph88%29.71 "Hg3 mi
2:50 pm63 °FSunny.14 mph83%29.92 "Hg10 mi
2:20 pm52 °FFog.9 mph94%29.71 "Hg1 mi
1:50 pm52 °FFog.7 mph94%29.71 "Hg1 mi
1:20 pm50 °FFog.6 mph100%29.74 "Hg1 mi
12:50 pm50 °FFog.7 mph100%29.74 "Hg1 mi
12:20 pm50 °FDrizzle. Broken clouds.3 mph100%29.74 "Hg1 mi
11:50 am48 °FFog.3 mph100%29.74 "Hg1 mi
11:20 am48 °FFog.3 mph100%29.74 "Hg1 mi
10:50 am48 °FFog.5 mph100%29.77 "Hg1 mi
10:20 am48 °FFog.3 mph100%29.77 "Hg1 mi
9:50 am48 °FFog.5 mph100%29.77 "Hg1 mi
9:20 am48 °FFog.1 mph100%29.77 "Hg1 mi
8:50 am46 °FFog.2 mph100%29.77 "Hg1 mi
8:20 am46 °FFog.5 mph100%29.77 "Hg1 mi
Weather by CustomWeather, © 2017

See weather overviewHow to use our weather pages